QPF
0.05 0.05 0.05 0.05 0.05 0.04 0.04 0.04 0.05 0.05 0.05 0.05 0.06 0.07 0.06 0.06 0.06 0.06 0.05 0.04 0.03 0.03 0.03 0.02 0.07 0.16 0.15 0.13 0.10 0.07 0.06 0.05 0.05 0.05 0.05 0.06 0.06 0.05 0.05 0.05 0.06 0.06 0.06 0.07
0.02 0.02 0.02 0.02 0.03 0.04 0.05 0.04 0.04 0.04 0.05 0.05 0.06 0.06 0.05 0.03 0.03 0.04 0.04 0.04 0.04 0.04 0.04 0.05 0.03 0.09 0.14 0.13 0.10 0.08 0.05 0.04 0.05 0.06 0.06 0.09 0.09 0.06 0.05 0.04 0.05 0.06 0.07 0.07
0.01 0.01 0.02 0.02 0.03 0.04 0.03 0.04 0.03 0.03 0.04 0.06 0.05 0.05 0.05 0.05 0.05 0.04 0.03 0.04 0.04 0.04 0.05 0.07 0.04 0.06 0.11 0.11 0.09 0.06 0.04 0.04 0.05 0.06 0.07 0.07 0.06 0.05 0.04 0.03 0.03 0.04 0.05 0.06
0.02 0.02 0.03 0.04 0.05 0.04 0.04 0.05 0.04 0.04 0.05 0.07 0.08 0.06 0.05 0.05 0.06 0.05 0.05 0.05 0.04 0.03 0.04 0.05 0.05 0.04 0.07 0.10 0.07 0.06 0.05 0.04 0.04 0.04 0.04 0.04 0.03 0.03 0.03 0.03 0.03 0.04 0.05 0.05
0.04 0.03 0.03 0.03 0.04 0.05 0.06 0.06 0.06 0.07 0.08 0.08 0.09 0.06 0.05 0.03 0.04 0.04 0.04 0.04 0.04 0.03 0.03 0.03 0.03 0.04 0.04 0.06 0.08 0.08 0.08 0.04 0.02 0.02 0.02 0.02 0.02 0.02 0.02 0.02 0.02 0.03 0.05 0.05
0.05 0.05 0.04 0.03 0.02 0.04 0.05 0.06 0.07 0.10 0.14 0.11 0.07 0.06 0.04 0.02 0.02 0.03 0.04 0.05 0.05 0.04 0.03 0.03 0.03 0.04 0.05 0.05 0.08 0.09 0.07 0.04 0.01 0.01 0.01 0.01 0.01 0.02 0.03 0.03 0.03 0.04 0.04 0.05
0.05 0.04 0.04 0.05 0.02 0.03 0.06 0.07 0.07 0.08 0.10 0.10 0.04 0.04 0.03 0.03 0.02 0.02 0.05 0.06 0.05 0.04 0.03 0.04 0.04 0.04 0.03 0.03 0.03 0.04 0.05 0.03 0.02 0.01 0.01 0.01 0.01 0.02 0.02 0.02 0.02 0.02 0.03 0.04
0.05 0.05 0.05 0.04 0.03 0.06 0.08 0.06 0.05 0.05 0.06 0.06 0.03 0.03 0.03 0.03 0.03 0.02 0.03 0.04 0.04 0.04 0.04 0.05 0.05 0.05 0.04 0.03 0.02 0.02 0.03 0.03 0.02 0.02 0.01 0.01 0.01 0.02 0.02 0.02 0.01 0.02 0.02 0.02
0.05 0.08 0.09 0.07 0.07 0.08 0.07 0.06 0.04 0.03 0.03 0.04 0.04 0.03 0.04 0.03 0.03 0.02 0.03 0.03 0.04 0.05 0.05 0.04 0.04 0.05 0.06 0.06 0.05 0.04 0.03 0.03 0.02 0.02 0.02 0.01 0.01 0.02 0.02 0.01 0.01 0.01 0.01 0.02
0.08 0.08 0.06 0.06 0.07 0.07 0.06 0.06 0.05 0.04 0.04 0.04 0.04 0.04 0.04 0.03 0.02 0.02 0.02 0.02 0.02 0.02 0.02 0.02 0.03 0.05 0.06 0.08 0.10 0.08 0.06 0.05 0.04 0.05 0.06 0.04 0.02 0.02 0.01 0.01 0.01 0.01 0.01 0.01
0.03 0.05 0.04 0.03 0.03 0.05 0.06 0.05 0.07 0.06 0.04 0.04 0.04 0.04 0.03 0.03 0.02 0.02 0.02 0.01 0.01 0.01 0.01 0.02 0.03 0.04 0.04 0.05 0.07 0.08 0.08 0.09 0.08 0.07 0.06 0.03 0.02 0.02 0.01 0.01 0.01 0.01 0.01 0.01
0.03 0.05 0.05 0.05 0.04 0.03 0.05 0.05 0.06 0.06 0.05 0.04 0.04 0.03 0.03 0.02 0.01 0.01 0.01 0.01 0.01 0.01 0.01 0.02 0.02 0.03 0.03 0.03 0.04 0.04 0.04 0.05 0.05 0.05 0.04 0.03 0.02 0.02 0.02 0.01 0.01 0.02 0.02 0.02
0.05 0.07 0.08 0.08 0.07 0.04 0.04 0.05 0.05 0.03 0.03 0.03 0.03 0.04 0.04 0.03 0.02 0.01 0.01 0.01 0.01 0.02 0.03 0.03 0.02 0.03 0.05 0.04 0.04 0.04 0.03 0.03 0.03 0.03 0.04 0.03 0.03 0.03 0.03 0.03 0.02 0.02 0.03 0.02
0.03 0.05 0.08 0.07 0.07 0.06 0.05 0.05 0.03 0.03 0.02 0.02 0.03 0.03 0.03 0.03 0.03 0.03 0.03 0.03 0.02 0.01 0.02 0.02 0.02 0.03 0.06 0.07 0.06 0.05 0.05 0.04 0.03 0.02 0.03 0.03 0.03 0.03 0.04 0.04 0.03 0.02 0.02 0.03
0.04 0.04 0.05 0.05 0.05 0.05 0.06 0.05 0.04 0.03 0.02 0.02 0.02 0.02 0.02 0.03 0.04 0.04 0.03 0.02 0.02 0.02 0.02 0.01 0.01 0.02 0.04 0.08 0.08 0.06 0.05 0.05 0.04 0.03 0.02 0.03 0.03 0.04 0.04 0.05 0.04 0.03 0.02 0.03
0.05 0.05 0.05 0.03 0.03 0.03 0.04 0.03 0.02 0.02 0.02 0.02 0.02 0.02 0.02 0.02 0.02 0.02 0.01 0.01 0.01 0.02 0.02 0.02 0.02 0.02 0.02 0.04 0.07 0.07 0.06 0.06 0.06 0.04 0.03 0.03 0.03 0.03 0.02 0.03 0.04 0.03 0.03 0.03
0.06 0.05 0.05 0.03 0.02 0.02 0.02 0.02 0.01 0.01 0.01 0.01 0.01 0.01 0.01 0.01 0.01 0.01 0.01 0.01 0.01 0.02 0.01 0.02 0.02 0.02 0.02 0.03 0.05 0.06 0.05 0.05 0.05 0.05 0.04 0.04 0.03 0.03 0.02 0.03 0.04 0.04 0.04 0.03
0.07 0.08 0.06 0.03 0.02 0.02 0.01 0.01 0.01 0.01 0.01 0.01 0.01 0.01 0.01 0.01 0.01 0.01 0.01 0.01 0.01 0.01 0.01 0.01 0.02 0.02 0.02 0.02 0.04 0.06 0.07 0.05 0.05 0.04 0.03 0.03 0.03 0.04 0.03 0.03 0.03 0.03 0.03 0.02
0.09 0.08 0.05 0.03 0.03 0.02 0.02 0.02 0.03 0.02 0.02 0.03 0.03 0.02 0.02 0.01 0.01 0.01 0.01 0.01 0.01 0.01 0.00 0.01 0.02 0.02 0.02 0.02 0.02 0.02 0.04 0.06 0.05 0.04 0.03 0.02 0.02 0.02 0.02 0.02 0.02 0.02 0.02 0.01
0.06 0.05 0.05 0.03 0.03 0.03 0.02 0.03 0.03 0.03 0.03 0.04 0.03 0.02 0.01 0.01 0.01 0.00 0.01 0.02 0.01 0.00 0.01 0.01 0.02 0.03 0.03 0.03 0.03 0.02 0.03 0.05 0.06 0.04 0.03 0.02 0.02 0.01 0.01 0.03 0.03 0.02 0.02 0.01
0.04 0.03 0.03 0.02 0.02 0.02 0.02 0.02 0.02 0.03 0.04 0.04 0.02 0.01 0.01 0.01 0.00 0.00 0.01 0.01 0.01 0.01 0.01 0.01 0.01 0.04 0.03 0.04 0.04 0.03 0.03 0.04 0.03 0.03 0.03 0.03 0.03 0.02 0.02 0.02 0.05 0.05 0.04 0.02
0.02 0.02 0.01 0.01 0.02 0.01 0.01 0.01 0.01 0.01 0.02 0.02 0.02 0.01 0.01 0.01 0.01 0.01 0.01 0.01 0.01 0.01 0.01 0.00 0.01 0.03 0.06 0.04 0.03 0.02 0.02 0.02 0.03 0.02 0.02 0.02 0.03 0.02 0.02 0.02 0.03 0.05 0.06 0.04
0.02 0.01 0.01 0.01 0.01 0.01 0.01 0.01 0.01 0.01 0.01 0.01 0.01 0.01 0.01 0.01 0.01 0.01 0.01 0.01 0.01 0.01 0.00 0.00 0.00 0.02 0.06 0.05 0.03 0.02 0.02 0.02 0.02 0.02 0.01 0.01 0.02 0.01 0.01 0.02 0.02 0.02 0.03 0.03
0.01 0.01 0.01 0.01 0.02 0.01 0.01 0.01 0.01 0.01 0.01 0.01 0.01 0.01 0.01 0.01 0.01 0.01 0.01 0.01 0.01 0.00 0.00 0.00 0.01 0.01 0.03 0.04 0.03 0.02 0.02 0.03 0.02 0.02 0.01 0.01 0.01 0.01 0.01 0.01 0.01 0.01 0.01 0.01
0.02 0.01 0.01 0.01 0.02 0.01 0.01 0.01 0.00 0.00 0.00 0.00 0.01 0.01 0.01 0.01 0.01 0.01 0.01 0.01 0.00 0.00 0.00 0.01 0.01 0.01 0.01 0.02 0.03 0.02 0.01 0.01 0.02 0.03 0.02 0.01 0.01 0.01 0.01 0.01 0.01 0.01 0.01 0.01
0.03 0.02 0.01 0.01 0.01 0.01 0.01 0.00 0.00 0.00 0.00 0.00 0.00 0.01 0.01 0.01 0.01 0.01 0.01 0.01 0.01 0.00 0.01 0.01 0.01 0.01 0.01 0.01 0.01 0.01 0.01 0.00 0.01 0.02 0.02 0.01 0.01 0.01 0.01 0.01 0.01 0.01 0.01 0.01
0.02 0.02 0.02 0.01 0.01 0.01 0.01 0.00 0.00 0.00 0.00 0.00 0.01 0.01 0.01 0.01 0.01 0.01 0.01 0.01 0.01 0.01 0.01 0.01 0.01 0.01 0.00 0.00 0.01 0.01 0.00 0.00 0.00 0.01 0.01 0.01 0.01 0.01 0.02 0.02 0.01 0.01 0.02 0.02
MSLP
1009.00 1009.01 1009.06 1009.13 1009.19 1009.19 1009.06 1008.77 1008.29 1007.63 1006.83 1005.96 1005.10 1004.35 1003.79 1003.48 1003.45 1003.68 1004.14 1004.77 1005.49 1006.22 1006.91 1007.52 1008.03 1008.45 1008.80 1009.10 1009.40 1009.72 1010.08 1010.47 1010.89 1011.33 1011.79 1012.23 1012.67 1013.10 1013.53 1013.95 1014.37 1014.80 1015.23 1015.65
1009.12 1009.07 1009.01 1008.93 1008.81 1008.62 1008.33 1007.92 1007.39 1006.75 1006.03 1005.28 1004.56 1003.95 1003.49 1003.22 1003.18 1003.34 1003.68 1004.17 1004.75 1005.38 1006.00 1006.59 1007.14 1007.64 1008.10 1008.54 1008.96 1009.38 1009.80 1010.23 1010.67 1011.10 1011.53 1011.96 1012.38 1012.81 1013.24 1013.68 1014.12 1014.57 1015.02 1015.46
1009.06 1008.92 1008.75 1008.52 1008.24 1007.90 1007.48 1006.98 1006.42 1005.80 1005.15 1004.51 1003.91 1003.41 1003.03 1002.80 1002.72 1002.81 1003.04 1003.40 1003.86 1004.38 1004.95 1005.53 1006.12 1006.71 1007.29 1007.85 1008.40 1008.93 1009.44 1009.92 1010.37 1010.81 1011.23 1011.64 1012.06 1012.49 1012.93 1013.38 1013.85 1014.33 1014.80 1015.25
1008.91 1008.67 1008.36 1008.00 1007.58 1007.11 1006.59 1006.03 1005.45 1004.86 1004.28 1003.74 1003.25 1002.84 1002.53 1002.33 1002.23 1002.26 1002.41 1002.66 1003.02 1003.46 1003.98 1004.56 1005.19 1005.85 1006.52 1007.19 1007.84 1008.46 1009.03 1009.56 1010.04 1010.48 1010.90 1011.30 1011.72 1012.15 1012.60 1013.08 1013.57 1014.07 1014.55 1015.01
1008.76 1008.39 1007.95 1007.47 1006.93 1006.35 1005.76 1005.16 1004.58 1004.03 1003.53 1003.08 1002.69 1002.37 1002.13 1001.96 1001.87 1001.88 1001.96 1002.15 1002.44 1002.82 1003.30 1003.87 1004.52 1005.22 1005.95 1006.68 1007.39 1008.06 1008.67 1009.22 1009.71 1010.15 1010.56 1010.96 1011.38 1011.81 1012.28 1012.77 1013.28 1013.79 1014.28 1014.74
1008.66 1008.16 1007.60 1006.99 1006.36 1005.71 1005.07 1004.46 1003.90 1003.40 1002.96 1002.60 1002.31 1002.09 1001.92 1001.82 1001.76 1001.77 1001.85 1002.00 1002.25 1002.60 1003.04 1003.59 1004.22 1004.92 1005.65 1006.39 1007.11 1007.78 1008.38 1008.92 1009.40 1009.83 1010.24 1010.63 1011.05 1011.49 1011.96 1012.46 1012.98 1013.50 1013.99 1014.45
1008.64 1008.00 1007.33 1006.63 1005.92 1005.23 1004.57 1003.97 1003.43 1002.99 1002.63 1002.36 1002.16 1002.04 1001.96 1001.93 1001.94 1001.99 1002.09 1002.25 1002.48 1002.81 1003.22 1003.73 1004.31 1004.96 1005.64 1006.33 1007.00 1007.62 1008.19 1008.69 1009.14 1009.55 1009.94 1010.33 1010.74 1011.19 1011.66 1012.16 1012.68 1013.19 1013.68 1014.13
1008.64 1007.90 1007.14 1006.38 1005.63 1004.92 1004.26 1003.68 1003.19 1002.80 1002.51 1002.33 1002.23 1002.20 1002.22 1002.28 1002.37 1002.48 1002.63 1002.82 1003.06 1003.37 1003.75 1004.20 1004.71 1005.27 1005.86 1006.46 1007.04 1007.58 1008.07 1008.52 1008.93 1009.31 1009.68 1010.06 1010.47 1010.91 1011.38 1011.87 1012.37 1012.87 1013.34 1013.78
1008.60 1007.79 1006.98 1006.19 1005.43 1004.73 1004.10 1003.56 1003.12 1002.79 1002.57 1002.46 1002.44 1002.50 1002.61 1002.76 1002.94 1003.14 1003.35 1003.59 1003.85 1004.15 1004.49 1004.87 1005.29 1005.75 1006.22 1006.69 1007.16 1007.59 1008.00 1008.39 1008.75 1009.10 1009.46 1009.83 1010.23 1010.66 1011.11 1011.59 1012.07 1012.54 1012.98 1013.40
1008.43 1007.60 1006.79 1006.01 1005.28 1004.61 1004.03 1003.53 1003.15 1002.87 1002.72 1002.67 1002.72 1002.85 1003.05 1003.28 1003.55 1003.82 1004.10 1004.38 1004.67 1004.96 1005.27 1005.59 1005.92 1006.26 1006.61 1006.96 1007.30 1007.64 1007.96 1008.28 1008.60 1008.93 1009.27 1009.64 1010.03 1010.44 1010.87 1011.31 1011.75 1012.18 1012.59 1012.98
1008.08 1007.28 1006.50 1005.77 1005.10 1004.50 1003.97 1003.54 1003.21 1002.99 1002.89 1002.89 1003.00 1003.19 1003.44 1003.75 1004.08 1004.42 1004.76 1005.09 1005.40 1005.70 1005.97 1006.23 1006.48 1006.72 1006.96 1007.20 1007.44 1007.68 1007.93 1008.20 1008.49 1008.80 1009.13 1009.48 1009.86 1010.24 1010.64 1011.04 1011.43 1011.80 1012.16 1012.50
1007.51 1006.78 1006.08 1005.43 1004.84 1004.32 1003.88 1003.52 1003.26 1003.09 1003.03 1003.08 1003.22 1003.46 1003.76 1004.11 1004.50 1004.90 1005.29 1005.66 1005.99 1006.29 1006.54 1006.76 1006.94 1007.10 1007.25 1007.40 1007.56 1007.73 1007.93 1008.16 1008.42 1008.71 1009.03 1009.36 1009.71 1010.07 1010.41 1010.75 1011.07 1011.38 1011.67 1011.96
1006.77 1006.13 1005.53 1004.98 1004.50 1004.08 1003.73 1003.45 1003.26 1003.16 1003.15 1003.23 1003.41 1003.68 1004.02 1004.41 1004.84 1005.27 1005.70 1006.10 1006.45 1006.75 1006.99 1007.17 1007.31 1007.41 1007.50 1007.58 1007.67 1007.79 1007.95 1008.15 1008.39 1008.66 1008.96 1009.27 1009.58 1009.88 1010.17 1010.43 1010.67 1010.90 1011.12 1011.34
1005.93 1005.38 1004.88 1004.45 1004.07 1003.76 1003.52 1003.34 1003.23 1003.20 1003.25 1003.38 1003.61 1003.90 1004.27 1004.70 1005.15 1005.62 1006.07 1006.49 1006.85 1007.15 1007.38 1007.54 1007.64 1007.70 1007.73 1007.76 1007.81 1007.89 1008.00 1008.17 1008.37 1008.62 1008.88 1009.15 1009.41 1009.65 1009.86 1010.04 1010.19 1010.33 1010.47 1010.62
1005.06 1004.60 1004.20 1003.88 1003.62 1003.42 1003.29 1003.22 1003.21 1003.27 1003.39 1003.59 1003.86 1004.20 1004.60 1005.05 1005.53 1006.01 1006.48 1006.91 1007.27 1007.56 1007.78 1007.91 1007.98 1008.00 1007.99 1007.97 1007.96 1007.99 1008.06 1008.18 1008.34 1008.53 1008.75 1008.96 1009.15 1009.32 1009.45 1009.55 1009.61 1009.67 1009.73 1009.81
1004.27 1003.88 1003.56 1003.33 1003.19 1003.11 1003.10 1003.15 1003.25 1003.41 1003.62 1003.90 1004.23 1004.62 1005.06 1005.53 1006.03 1006.52 1006.99 1007.41 1007.76 1008.03 1008.22 1008.32 1008.34 1008.32 1008.25 1008.18 1008.11 1008.08 1008.09 1008.14 1008.24 1008.36 1008.50 1008.64 1008.76 1008.85 1008.90 1008.92 1008.91 1008.88 1008.87 1008.89
1003.62 1003.27 1003.03 1002.89 1002.85 1002.88 1002.99 1003.16 1003.39 1003.66 1003.98 1004.34 1004.74 1005.18 1005.66 1006.16 1006.66 1007.15 1007.60 1008.00 1008.32 1008.55 1008.69 1008.75 1008.72 1008.63 1008.50 1008.35 1008.21 1008.10 1008.03 1008.00 1008.00 1008.04 1008.10 1008.15 1008.19 1008.20 1008.18 1008.12 1008.05 1007.97 1007.91 1007.87
1003.15 1002.85 1002.66 1002.60 1002.65 1002.80 1003.02 1003.32 1003.66 1004.05 1004.47 1004.92 1005.39 1005.88 1006.39 1006.90 1007.39 1007.86 1008.28 1008.63 1008.91 1009.08 1009.16 1009.15 1009.06 1008.89 1008.68 1008.45 1008.22 1008.02 1007.84 1007.71 1007.61 1007.55 1007.51 1007.47 1007.42 1007.36 1007.27 1007.17 1007.05 1006.93 1006.83 1006.77
1002.90 1002.63 1002.50 1002.51 1002.65 1002.90 1003.23 1003.64 1004.09 1004.58 1005.09 1005.62 1006.15 1006.68 1007.20 1007.70 1008.17 1008.59 1008.96 1009.25 1009.46 1009.56 1009.57 1009.48 1009.31 1009.06 1008.77 1008.45 1008.12 1007.80 1007.52 1007.27 1007.07 1006.89 1006.74 1006.61 1006.48 1006.35 1006.21 1006.06 1005.91 1005.77 1005.66 1005.59
1002.86 1002.63 1002.56 1002.64 1002.86 1003.20 1003.63 1004.13 1004.68 1005.25 1005.83 1006.40 1006.97 1007.50 1008.01 1008.49 1008.91 1009.27 1009.57 1009.78 1009.91 1009.93 1009.86 1009.69 1009.44 1009.11 1008.74 1008.33 1007.91 1007.49 1007.10 1006.74 1006.41 1006.13 1005.87 1005.64 1005.43 1005.22 1005.03 1004.85 1004.68 1004.53 1004.42 1004.35
1003.02 1002.85 1002.85 1003.01 1003.30 1003.72 1004.23 1004.80 1005.41 1006.03 1006.65 1007.25 1007.81 1008.33 1008.80 1009.21 1009.56 1009.85 1010.06 1010.19 1010.22 1010.17 1010.02 1009.78 1009.46 1009.07 1008.62 1008.14 1007.63 1007.13 1006.64 1006.17 1005.74 1005.34 1004.97 1004.64 1004.34 1004.07 1003.82 1003.59 1003.40 1003.25 1003.13 1003.07
1003.36 1003.27 1003.34 1003.58 1003.95 1004.43 1005.00 1005.62 1006.26 1006.91 1007.53 1008.11 1008.64 1009.11 1009.52 1009.85 1010.12 1010.31 1010.42 1010.46 1010.41 1010.28 1010.07 1009.78 1009.41 1008.97 1008.47 1007.94 1007.37 1006.80 1006.22 1005.66 1005.12 1004.62 1004.14 1003.71 1003.31 1002.96 1002.64 1002.37 1002.15 1001.97 1001.85 1001.79
1003.84 1003.85 1004.01 1004.33 1004.77 1005.31 1005.91 1006.56 1007.21 1007.85 1008.45 1008.99 1009.46 1009.85 1010.17 1010.41 1010.58 1010.67 1010.69 1010.64 1010.52 1010.33 1010.06 1009.73 1009.34 1008.87 1008.36 1007.79 1007.19 1006.57 1005.93 1005.29 1004.66 1004.05 1003.47 1002.93 1002.43 1001.98 1001.59 1001.25 1000.97 1000.76 1000.62 1000.55
1004.45 1004.55 1004.81 1005.20 1005.70 1006.28 1006.91 1007.57 1008.21 1008.82 1009.37 1009.85 1010.24 1010.55 1010.78 1010.92 1010.98 1010.98 1010.91 1010.79 1010.60 1010.36 1010.07 1009.72 1009.31 1008.85 1008.33 1007.76 1007.14 1006.48 1005.80 1005.10 1004.39 1003.68 1003.00 1002.35 1001.75 1001.20 1000.71 1000.29 999.95 999.69 999.51 999.41
1005.12 1005.32 1005.66 1006.12 1006.67 1007.28 1007.93 1008.58 1009.20 1009.77 1010.27 1010.68 1011.00 1011.22 1011.36 1011.40 1011.38 1011.29 1011.14 1010.95 1010.72 1010.44 1010.13 1009.78 1009.38 1008.92 1008.42 1007.86 1007.24 1006.57 1005.86 1005.10 1004.33 1003.55 1002.77 1002.02 1001.31 1000.66 1000.07 999.56 999.14 998.82 998.58 998.44
1005.81 1006.10 1006.51 1007.02 1007.61 1008.24 1008.89 1009.53 1010.13 1010.66 1011.11 1011.46 1011.72 1011.87 1011.92 1011.89 1011.79 1011.63 1011.42 1011.18 1010.91 1010.61 1010.29 1009.94 1009.55 1009.12 1008.64 1008.09 1007.49 1006.82 1006.09 1005.31 1004.48 1003.64 1002.78 1001.94 1001.14 1000.39 999.71 999.12 998.62 998.23 997.94 997.75
1006.45 1006.81 1007.28 1007.84 1008.45 1009.10 1009.75 1010.37 1010.95 1011.45 1011.86 1012.18 1012.38 1012.48 1012.48 1012.39 1012.24 1012.03 1011.77 1011.49 1011.19 1010.88 1010.55 1010.21 1009.83 1009.42 1008.97 1008.44 1007.86 1007.20 1006.47 1005.67 1004.82 1003.94 1003.03 1002.13 1001.26 1000.43 999.68 999.02 998.45 998.00 997.66 997.43
Thickness
5678 5685 5687 5683 5684 5686 5679 5673 5667 5673 5675 5681 5686 5688 5691 5693 5693 5692 5690 5690 5691 5689 5687 5687 5687 5687 5687 5687 5685 5684 5683 5681 5680 5680 5679 5678 5677 5675 5674 5673 5673 5673 5672 5671
5669 5679 5678 5675 5677 5678 5677 5676 5673 5674 5673 5683 5683 5683 5682 5683 5684 5683 5682 5683 5683 5683 5681 5680 5680 5679 5679 5678 5678 5677 5675 5674 5674 5673 5672 5671 5670 5669 5668 5667 5667 5666 5666 5666
5648 5663 5664 5656 5666 5669 5669 5672 5670 5665 5669 5674 5673 5674 5673 5674 5675 5675 5675 5675 5675 5676 5676 5674 5673 5672 5671 5671 5671 5670 5668 5668 5667 5666 5665 5664 5664 5663 5662 5661 5660 5660 5660 5660
5637 5644 5633 5651 5669 5669 5664 5663 5668 5668 5668 5670 5669 5669 5669 5669 5667 5667 5668 5667 5668 5668 5669 5667 5667 5665 5665 5665 5664 5663 5661 5661 5661 5660 5659 5658 5657 5656 5655 5655 5654 5654 5654 5653
5625 5624 5633 5650 5661 5661 5654 5651 5661 5660 5661 5661 5662 5660 5657 5661 5663 5662 5662 5662 5662 5663 5662 5661 5660 5660 5659 5658 5656 5655 5654 5654 5654 5653 5652 5651 5650 5650 5650 5649 5649 5648 5648 5647
5622 5618 5618 5636 5656 5663 5653 5638 5654 5656 5653 5653 5653 5642 5645 5654 5655 5654 5654 5653 5654 5655 5655 5654 5654 5653 5652 5650 5649 5647 5647 5648 5647 5646 5645 5645 5644 5644 5644 5644 5643 5642 5642 5642
5614 5612 5620 5639 5651 5653 5630 5629 5644 5647 5647 5647 5644 5643 5646 5648 5647 5647 5646 5646 5647 5646 5646 5646 5647 5646 5644 5643 5642 5643 5642 5641 5640 5640 5639 5639 5638 5638 5638 5637 5636 5635 5635 5635
5608 5604 5611 5636 5640 5631 5628 5635 5637 5639 5640 5640 5640 5640 5640 5639 5638 5638 5637 5638 5639 5638 5637 5638 5639 5638 5636 5635 5637 5637 5635 5634 5633 5633 5633 5634 5631 5631 5631 5630 5628 5628 5627 5627
5608 5609 5621 5628 5629 5631 5631 5629 5631 5631 5633 5634 5633 5632 5631 5630 5630 5630 5630 5629 5630 5630 5629 5630 5631 5631 5629 5630 5631 5630 5628 5627 5627 5627 5627 5627 5625 5624 5623 5622 5621 5620 5620 5620
5607 5613 5618 5622 5624 5626 5627 5627 5628 5628 5628 5629 5626 5625 5623 5621 5620 5621 5621 5620 5620 5621 5622 5622 5623 5624 5623 5624 5625 5624 5622 5622 5621 5620 5620 5620 5619 5618 5617 5616 5614 5614 5613 5613
5603 5609 5614 5617 5618 5620 5622 5624 5624 5623 5623 5621 5619 5616 5616 5614 5613 5613 5613 5613 5614 5614 5615 5615 5616 5617 5617 5618 5618 5618 5617 5616 5614 5613 5612 5612 5611 5611 5611 5611 5610 5609 5608 5608
5599 5607 5606 5608 5614 5617 5617 5617 5616 5616 5615 5615 5613 5610 5609 5607 5606 5607 5606 5606 5606 5607 5608 5608 5609 5610 5611 5611 5612 5611 5610 5609 5608 5607 5605 5605 5604 5603 5605 5604 5605 5604 5604 5603
5608 5610 5609 5610 5610 5612 5611 5611 5610 5610 5609 5607 5607 5606 5603 5600 5599 5600 5600 5600 5600 5601 5601 5602 5603 5603 5604 5605 5606 5606 5604 5603 5602 5601 5600 5599 5598 5597 5596 5596 5597 5596 5596 5596
5610 5608 5604 5605 5604 5605 5605 5605 5605 5604 5603 5602 5600 5599 5597 5594 5593 5593 5593 5595 5595 5595 5595 5595 5596 5597 5598 5599 5600 5599 5598 5598 5597 5595 5594 5593 5591 5590 5589 5588 5587 5587 5588 5588
5606 5605 5602 5602 5600 5600 5600 5598 5596 5595 5594 5593 5594 5593 5590 5588 5586 5587 5588 5589 5589 5588 5588 5589 5590 5590 5592 5593 5593 5593 5592 5592 5592 5590 5589 5588 5585 5584 5583 5582 5581 5580 5580 5581
5601 5601 5599 5596 5595 5595 5594 5592 5590 5589 5588 5588 5586 5585 5584 5583 5581 5581 5582 5582 5581 5581 5582 5583 5583 5585 5587 5587 5587 5587 5587 5587 5587 5584 5583 5581 5579 5578 5576 5575 5574 5573 5573 5573
5594 5593 5592 5590 5589 5589 5588 5588 5586 5585 5584 5582 5581 5580 5579 5577 5575 5575 5576 5576 5576 5576 5576 5577 5578 5580 5581 5582 5581 5580 5580 5581 5581 5578 5576 5575 5573 5572 5570 5569 5568 5568 5568 5569
5594 5592 5590 5588 5586 5585 5584 5584 5583 5581 5579 5578 5577 5575 5572 5570 5569 5569 5570 5571 5570 5570 5572 5572 5573 5574 5575 5575 5574 5574 5574 5574 5573 5572 5571 5569 5567 5566 5565 5564 5564 5564 5564 5564
5588 5586 5586 5584 5583 5581 5579 5578 5577 5575 5575 5573 5570 5567 5566 5565 5565 5565 5565 5565 5564 5564 5566 5568 5568 5568 5569 5569 5569 5568 5567 5567 5567 5566 5564 5563 5562 5561 5560 5559 5559 5559 5559 5558
5583 5582 5581 5579 5578 5576 5574 5572 5571 5570 5568 5567 5564 5561 5559 5560 5560 5560 5560 5559 5560 5561 5562 5562 5563 5562 5563 5563 5563 5562 5561 5561 5560 5559 5558 5557 5556 5555 5555 5555 5554 5554 5553 5552
5575 5575 5574 5572 5570 5570 5569 5567 5565 5563 5562 5561 5558 5556 5555 5554 5555 5555 5554 5554 5556 5557 5557 5558 5557 5557 5557 5557 5557 5555 5555 5554 5554 5553 5552 5552 5551 5550 5550 5550 5549 5548 5547 5546
5568 5568 5567 5566 5564 5562 5562 5562 5560 5559 5557 5555 5554 5553 5551 5550 5550 5549 5550 5550 5552 5553 5552 5552 5552 5552 5552 5552 5550 5549 5549 5549 5549 5548 5547 5546 5545 5545 5544 5543 5543 5542 5541 5540
5563 5563 5562 5560 5557 5556 5556 5555 5555 5553 5552 5550 5549 5548 5546 5545 5544 5543 5543 5546 5547 5548 5547 5547 5547 5547 5547 5546 5545 5544 5544 5544 5544 5543 5542 5541 5540 5539 5538 5538 5537 5536 5535 5535
5559 5558 5557 5555 5553 5551 5548 5548 5548 5547 5546 5545 5545 5543 5541 5539 5539 5540 5540 5542 5542 5543 5542 5542 5542 5542 5541 5540 5539 5538 5538 5537 5537 5536 5536 5535 5534 5533 5532 5532 5531 5530 5530 5529
5556 5555 5553 5550 5548 5546 5545 5544 5542 5541 5540 5539 5539 5539 5538 5537 5535 5535 5536 5537 5537 5537 5537 5537 5536 5536 5535 5535 5534 5532 5532 5531 5531 5530 5529 5528 5527 5526 5525 5524 5524 5523 5523 5522
5551 5549 5548 5547 5545 5543 5542 5540 5537 5536 5535 5533 5532 5532 5532 5532 5531 5531 5531 5532 5532 5532 5531 5531 5531 5531 5530 5529 5528 5527 5526 5525 5525 5523 5522 5521 5520 5519 5518 5518 5517 5517 5516 5516
5546 5544 5542 5541 5541 5540 5539 5536 5534 5532 5531 5530 5528 5528 5528 5527 5526 5526 5527 5526 5526 5526 5526 5526 5526 5525 5524 5523 5522 5521 5520 5519 5518 5516 5516 5514 5513 5512 5512 5512 5510 5509 5509 5508